Regional Weather Roundup
Issued by NWS

Home | Current Version | Previous Version | Graphics & Text | Print | Product List | Glossary On
Versions: 1 2 3 4 5 6 7 8 9 10 11 12 13 14 15 16 17 18 19 20 21 22 23 24 25 26 27 28 29 30 31 32 33 34 35 36 37 38 39 40 41 42 43 44 45 46 47 48 49 50
000
ASUS43 KMKX 251611
RWRWI

WISCONSIN REGIONAL WEATHER ROUNDUP
NATIONAL WEATHER SERVICE MILWAUKEE/SULLIVAN WI
1000 AM CST THU DEC 25 2014

NOTE: "FAIR" INDICATES FEW OR NO CLOUDS BELOW 12,000 FEET WITH NO
SIGNIFICANT WEATHER AND/OR OBSTRUCTIONS TO VISIBILITY.

WIZ001-002-006>008-014>016-023>028-251700-
NORTHWEST WISCONSIN

CITY           SKY/WX    TMP DP  RH WIND       PRES   REMARKS
SUPERIOR ARPT  CLOUDY    33  29  86 SW8       29.68R WCI  26
ASHLAND        CLOUDY    33  28  81 SW10G18   29.68R WCI  25
HAYWARD        CLOUDY    31  26  82 SW8       29.69R WCI  23
SIREN          CLOUDY    32  28  86 SW10      29.72R WCI  23
CUMBERLAND     CLOUDY    30  28  93 SW12      29.71R WCI  21
RICE LAKE      CLOUDY    31  27  86 SW9       29.73R WCI  23
CHETEK         CLOUDY    30  27  86 S6        29.73R WCI  24
LADYSMITH      CLOUDY    32  28  86 SW12      29.73R WCI  23
EAU CLAIRE     CLOUDY    31  26  82 SW12      29.75R WCI  22
MENOMONIE      CLOUDY    32  28  84 S6        29.75R WCI  26
NEW RICHMOND   CLOUDY    31  29  93 S10       29.74R WCI  22
OSCEOLA        CLOUDY    32  31  96 S7        29.76R WCI  25
$$

WIZ003>005-009-010-017-018-251700-
NORTH CENTRAL WISCONSIN

CITY           SKY/WX    TMP DP  RH WIND       PRES   REMARKS
MANITOWISH WTR CLOUDY    29  28  96 SW10      29.67R WCI  20
ARBOR VITAE    CLOUDY    32  29  90 SW9       29.68R WCI  24
WOODRUFF       CLOUDY    32  29  90 SW9       29.68R WCI  24
RHINELANDER    CLOUDY    30  27  88 SW9G21    29.69R WCI  22
EAGLE RIVER    CLOUDY    30  29  94 SW10      29.67R WCI  21
LAND O LAKES   CLOUDY    31  29  90 SW7       29.66R WCI  24
PHILLIPS       CLOUDY    30  27  89 SW9       29.68R WCI  22
TOMAHAWK       CLOUDY    30  27  89 SW3       29.71R
MEDFORD        CLOUDY    29  25  86 SW8       29.72R WCI  21
MERRILL        CLOUDY    32  28  86 SW8       29.71R WCI  24
$$

WIZ029-030-035-036-043>047-251700-
CENTRAL WISCONSIN

CITY           SKY/WX    TMP DP  RH WIND       PRES   REMARKS
WAUSAU         CLOUDY    31  26  82 SW13      29.73R WCI  21
MOSINEE        CLOUDY    30  28  93 SW12      29.75R WCI  21
MARSHFIELD     CLOUDY    31  26  82 SW14      29.75R WCI  21
STEVENS POINT  CLOUDY    30  26  84 SW8       29.78R WCI  22
WAUPACA        CLOUDY    35  29  77 SW7       29.80R WCI  29
WAUTOMA        CLOUDY    33  28  82 SW10      29.82R WCI  25
WISC RAPIDS    CLOUDY    31  25  78 SW15      29.80R WCI  20
CAMP DOUGLAS   CLOUDY    32  32  99 S7        29.81R WCI  26
$$

WIZ011>013-019>022-031-037>040-048>050-251700-
NORTHEAST WISCONSIN

CITY           SKY/WX    TMP DP  RH WIND       PRES   REMARKS
ANTIGO         CLOUDY    30  27  90 SW13      29.71S WCI  20
SHAWANO        CLOUDY    35  29  80 SW9       29.77R WCI  28
OCONTO         CLOUDY    34  30  88 SW10G16   29.77R WCI  26
STURGEON BAY   CLOUDY    34  27  75 SW16G23   29.79R WCI  23
GREEN BAY      CLOUDY    34  29  82 SW13      29.79R WCI  25
MANITOWOC      CLOUDY    36  30  79 SW15      29.82R WCI  27
APPLETON       CLOUDY    34  30  86 SW14      29.80R WCI  24
CLINTONVILLE   CLOUDY    34  30  86 SW8       29.78R WCI  27
OSHKOSH        CLOUDY    34  28  79 SW12      29.82R WCI  25
$$

WIZ032>034-041-042-053>061-251700-
SOUTHWEST WISCONSIN

CITY           SKY/WX    TMP DP  RH WIND       PRES   REMARKS
LA CROSSE      CLOUDY    34  28  79 S10       29.81R WCI  26
SPARTA         CLOUDY    33  28  82 S10       29.82R WCI  24
VIROQUA        CLOUDY    31  31 100 S12       29.80R WCI  22
BOSCOBEL       CLOUDY    35  28  75 SW12G18   29.85R WCI  27
PRAIRIE DU CHI CLOUDY    35  28  78 S7        29.84R WCI  29
PLATTEVILLE    CLOUDY    33  31  90 S13       29.87R WCI  24
$$

WIZ056-057-062-063-064-067-068-251700-
SOUTH CENTRAL WISCONSIN

CITY           SKY/WX    TMP DP  RH WIND       PRES   REMARKS
REEDSBURG      CLOUDY    32  28  84 SW9       29.83R WCI  24
BARABOO/DELLS  CLOUDY    32  28  83 SW10      29.82R WCI  24
LONE ROCK      CLOUDY    37  27  67 SW9       29.86R WCI  30
MINERAL POINT  CLOUDY    34  30  86 S14G20    29.84R WCI  24
MADISON        CLOUDY    33  27  78 SW9G18    29.86R WCI  25
MIDDLETON      CLOUDY    35  29  79 SW10G18   29.86R WCI  27
WATERTOWN      CLOUDY    33  28  83 SW17      29.87R WCI  22
MONROE         CLOUDY    32  30  93 SW15      29.87R WCI  22
JANESVILLE     CLOUDY    36  28  75 MISG      29.90R
$$

WIZ051-052-058>065-066-070>072-251700-
SOUTHEAST WISCONSIN

CITY           SKY/WX    TMP DP  RH WIND       PRES   REMARKS
MILWAUKEE      CLOUDY    34  27  75 SW21G26   29.90R WCI  22
WAUKESHA       CLOUDY    30  27  86 SW13G21   29.89R WCI  20
MILWAUKEE/TIMM CLOUDY    34  27  75 SW16G23   29.88  WCI  23
RACINE         CLOUDY    35  27  72 SW17G26   29.91R WCI  25
BURLINGTON     CLOUDY    32  27  81 SW17G25   29.91R WCI  21
KENOSHA        CLOUDY    34  29  82 W16       29.91R WCI  24
FOND DU LAC    CLOUDY    33  27  78 SW16G25   29.84R WCI  23
SHEBOYGAN      CLOUDY    34  28  79 SW15G22   29.84R WCI  24
WEST BEND      CLOUDY    32  27  80 SW9G23    29.86R WCI  24
JUNEAU         CLOUDY    32  28  83 SW17G23   29.87R WCI  21
$$

LSZ147-162-251700-
LAKE SUPERIOR

STATION/POSITION TIME  TEMP    WIND        PRES    WAVE
                       AIR SEA DIR/SP/G            HT/PER
                 (UTC) (F)     (DEG/KT/KT) (MB)    (FT/S)
DEVILS ISLAND    1600   34     250/ 19/ 23 1004.9R
PORT WING        1500   34     210/  7/ 12 1004.1
SAXON HARBOR     1500   34     210/  8/ 14 1003.7R
$$

LMZ867-665-643>646-251700-
LAKE MICHIGAN

STATION/POSITION TIME  TEMP    WIND        PRES    WAVE
                       AIR SEA DIR/SP/G            HT/PER
                 (UTC) (F)     (DEG/KT/KT) (MB)    (FT/S)
CHAMBERS ISLAND  1500   34     200/  7/ 15 1007.1R
NORTHPORT PIER   1500   34     230/  5/ 14 1006.8R
SISTER BAY       1543          220/ 16/ 18   N/A
ALGOMA LAKESHORE 1545          270/ 17/ 21   N/A
KEWAUNEE LAKESHO 1500   35     230/  6/ 10 1007.2R
SHEBOYGAN LAKESH 1600   35 37  230/ 18/ 21 1011.4R
PORT WASHINGTON  1500   35     250/ 11/ 19 1011.2R
MILWAUKEE LAKESH 1500   35     250/ 17/ 26   N/A
KENOSHA   LAKESH 1600   35     230/ 15/ 20 1013.2R
$$

TC  - TEMPERATURE IN CELSIUS
VSB - VISIBILITY IN STATUTE MILES
WCI - WIND CHILL INDEX
HX  - HEAT INDEX




USA.gov is the U.S. government's official web portal to all federal, state and local government web resources and services.